Time,TemperatureF,DewpointF,PressureIn,WindDirection,WindDirectionDegrees,WindSpeedMPH,WindSpeedGustMPH,Humidity,HourlyPrecipIn,Conditions,Clouds,dailyrainin,SoftwareType,DateUTC
2013-02-09 00:00:00,43.4,23.5,29.74,ESE,107,0.0,0.0,45,0.00,,---,0.00,VWS V14.00,2013-02-09 07:00:00,
2013-02-09 00:01:00,43.4,23.5,29.74,ESE,107,0.0,0.0,45,0.00,,---,0.00,VWS V14.00,2013-02-09 07:01:00,
2013-02-09 00:06:00,43.0,23.6,29.74,ESE,107,0.0,0.0,46,0.00,,---,0.00,VWS V14.00,2013-02-09 07:06:00,
2013-02-09 00:11:00,42.7,23.9,29.73,ESE,107,0.0,0.0,47,0.00,,---,0.00,VWS V14.00,2013-02-09 07:11:00,
2013-02-09 00:16:00,42.4,24.1,29.74,ESE,107,0.0,0.0,48,0.00,,---,0.00,VWS V14.00,2013-02-09 07:16:00,
2013-02-09 00:21:00,42.3,24.5,29.74,SW,217,0.0,6.0,49,0.00,,---,0.00,VWS V14.00,2013-02-09 07:21:00,
2013-02-09 00:26:00,42.0,24.7,29.74,SSW,201,0.0,6.0,50,0.00,,---,0.00,VWS V14.00,2013-02-09 07:26:00,
2013-02-09 00:30:00,41.1,24.8,29.74,WSW,246,0.0,6.0,52,0.00,,---,0.00,VWS V14.00,2013-02-09 07:30:00,
2013-02-09 00:31:00,41.1,24.8,29.73,WSW,246,0.0,6.0,52,0.00,,---,0.00,VWS V14.00,2013-02-09 07:31:00,
2013-02-09 00:36:00,40.5,24.7,29.73,WSW,246,0.0,1.0,53,0.00,,---,0.00,VWS V14.00,2013-02-09 07:36:00,
2013-02-09 00:41:00,40.1,24.4,29.73,WSW,246,0.0,1.0,53,0.00,,---,0.00,VWS V14.00,2013-02-09 07:41:00,
2013-02-09 00:46:00,39.7,24.0,29.74,WSW,246,0.0,1.0,53,0.00,,---,0.00,VWS V14.00,2013-02-09 07:46:00,
2013-02-09 00:51:00,39.4,23.7,29.73,WSW,246,0.0,1.0,53,0.00,,---,0.00,VWS V14.00,2013-02-09 07:51:00,
2013-02-09 00:56:00,39.0,23.3,29.74,WSW,246,0.0,1.0,53,0.00,,---,0.00,VWS V14.00,2013-02-09 07:56:00,
2013-02-09 01:00:00,38.5,22.9,29.73,WSW,246,0.0,1.0,53,0.00,,---,0.00,VWS V14.00,2013-02-09 08:00:00,
2013-02-09 01:01:00,38.6,23.0,29.73,WSW,246,0.0,1.0,53,0.00,,---,0.00,VWS V14.00,2013-02-09 08:01:00,
2013-02-09 01:06:00,38.0,22.9,29.73,WSW,246,0.0,0.0,54,0.00,,---,0.00,VWS V14.00,2013-02-09 08:06:00,
2013-02-09 01:11:00,36.8,21.7,29.73,WSW,246,0.0,0.0,54,0.00,,---,0.00,VWS V14.00,2013-02-09 08:11:00,
2013-02-09 01:16:00,35.7,22.0,29.73,WSW,246,0.0,0.0,57,0.00,,---,0.00,VWS V14.00,2013-02-09 08:16:00,
2013-02-09 01:21:00,35.0,22.1,29.73,WSW,239,0.0,0.0,59,0.00,,---,0.00,VWS V14.00,2013-02-09 08:21:00,
2013-02-09 01:26:00,34.4,22.0,29.73,SSW,193,0.0,0.0,60,0.00,,---,0.00,VWS V14.00,2013-02-09 08:26:00,
2013-02-09 01:30:00,34.5,22.1,29.73,South,183,0.0,0.0,60,0.00,,---,0.00,VWS V14.00,2013-02-09 08:30:00,
2013-02-09 01:31:00,34.5,22.1,29.73,South,183,0.0,0.0,60,0.00,,---,0.00,VWS V14.00,2013-02-09 08:31:00,
2013-02-09 01:36:00,34.0,21.6,29.73,South,183,0.0,0.0,60,0.00,,---,0.00,VWS V14.00,2013-02-09 08:36:00,
2013-02-09 01:41:00,33.9,21.9,29.73,South,183,0.0,0.0,61,0.00,,---,0.00,VWS V14.00,2013-02-09 08:41:00,
2013-02-09 01:46:00,33.8,21.8,29.73,South,183,0.0,0.0,61,0.00,,---,0.00,VWS V14.00,2013-02-09 08:46:00,
2013-02-09 01:51:00,33.5,21.1,29.73,South,183,0.0,0.0,60,0.00,,---,0.00,VWS V14.00,2013-02-09 08:51:00,
2013-02-09 01:56:00,33.2,21.6,29.73,South,183,0.0,0.0,62,0.00,,---,0.00,VWS V14.00,2013-02-09 08:56:00,
2013-02-09 02:00:00,32.9,20.9,29.72,South,183,0.0,0.0,61,0.00,,---,0.00,VWS V14.00,2013-02-09 09:00:00,
2013-02-09 02:01:00,32.9,21.3,29.72,South,183,0.0,0.0,62,0.00,,---,0.00,VWS V14.00,2013-02-09 09:01:00,
2013-02-09 02:06:00,32.4,21.2,29.72,South,183,0.0,0.0,63,0.00,,---,0.00,VWS V14.00,2013-02-09 09:06:00,
2013-02-09 02:11:00,31.7,20.6,29.73,South,183,0.0,0.0,63,0.00,,---,0.00,VWS V14.00,2013-02-09 09:11:00,
2013-02-09 02:16:00,31.1,20.4,29.72,South,183,0.0,0.0,64,0.00,,---,0.00,VWS V14.00,2013-02-09 09:16:00,
2013-02-09 02:21:00,30.5,20.1,29.72,South,183,0.0,0.0,65,0.00,,---,0.00,VWS V14.00,2013-02-09 09:21:00,
2013-02-09 02:26:00,30.1,20.5,29.72,South,183,0.0,0.0,67,0.00,,---,0.00,VWS V14.00,2013-02-09 09:26:00,
2013-02-09 02:30:00,29.8,20.5,29.72,South,183,0.0,0.0,68,0.00,,---,0.00,VWS V14.00,2013-02-09 09:30:00,
2013-02-09 02:31:00,29.8,20.5,29.72,South,183,0.0,0.0,68,0.00,,---,0.00,VWS V14.00,2013-02-09 09:31:00,
2013-02-09 02:36:00,29.7,19.8,29.73,South,183,0.0,0.0,66,0.00,,---,0.00,VWS V14.00,2013-02-09 09:36:00,
2013-02-09 02:41:00,29.4,20.2,29.72,South,183,0.0,0.0,68,0.00,,---,0.00,VWS V14.00,2013-02-09 09:41:00,
2013-02-09 02:46:00,29.2,20.6,29.73,South,183,0.0,0.0,70,0.00,,---,0.00,VWS V14.00,2013-02-09 09:46:00,
2013-02-09 02:51:00,29.4,20.2,29.73,South,183,0.0,0.0,68,0.00,,---,0.00,VWS V14.00,2013-02-09 09:51:00,
2013-02-09 02:56:00,29.4,20.8,29.73,South,183,0.0,0.0,70,0.00,,---,0.00,VWS V14.00,2013-02-09 09:56:00,
2013-02-09 03:00:00,29.6,21.0,29.72,South,183,0.0,0.0,70,0.00,,---,0.00,VWS V14.00,2013-02-09 10:00:00,
2013-02-09 03:01:00,29.7,21.1,29.73,South,183,0.0,0.0,70,0.00,,---,0.00,VWS V14.00,2013-02-09 10:01:00,
2013-02-09 03:06:00,30.2,21.3,29.73,South,183,0.0,0.0,69,0.00,,---,0.00,VWS V14.00,2013-02-09 10:06:00,
2013-02-09 03:11:00,30.2,21.6,29.73,South,183,0.0,0.0,70,0.00,,---,0.00,VWS V14.00,2013-02-09 10:11:00,
2013-02-09 03:16:00,29.8,20.5,29.73,South,183,0.0,0.0,68,0.00,,---,0.00,VWS V14.00,2013-02-09 10:16:00,
2013-02-09 03:21:00,30.3,22.4,29.73,South,183,0.0,0.0,72,0.00,,---,0.00,VWS V14.00,2013-02-09 10:21:00,
2013-02-09 03:26:00,30.9,21.9,29.73,South,183,0.0,0.0,69,0.00,,---,0.00,VWS V14.00,2013-02-09 10:26:00,
2013-02-09 03:30:00,30.9,21.6,29.73,South,183,0.0,0.0,68,0.00,,---,0.00,VWS V14.00,2013-02-09 10:30:00,
2013-02-09 03:31:00,30.9,21.6,29.73,South,183,0.0,0.0,68,0.00,,---,0.00,VWS V14.00,2013-02-09 10:31:00,
2013-02-09 03:36:00,30.5,21.6,29.73,South,183,0.0,0.0,69,0.00,,---,0.00,VWS V14.00,2013-02-09 10:36:00,
2013-02-09 03:41:00,30.5,22.2,29.73,South,183,0.0,0.0,71,0.00,,---,0.00,VWS V14.00,2013-02-09 10:41:00,
2013-02-09 03:46:00,30.5,22.2,29.73,South,183,0.0,0.0,71,0.00,,---,0.00,VWS V14.00,2013-02-09 10:46:00,
2013-02-09 03:51:00,30.3,22.0,29.72,South,183,0.0,0.0,71,0.00,,---,0.00,VWS V14.00,2013-02-09 10:51:00,
2013-02-09 03:56:00,30.8,23.2,29.71,South,180,0.0,0.0,73,0.00,,---,0.00,VWS V14.00,2013-02-09 10:56:00,
2013-02-09 04:00:00,31.6,23.6,29.71,SSE,148,0.0,0.0,72,0.00,,---,0.00,VWS V14.00,2013-02-09 11:00:00,
2013-02-09 04:01:00,31.6,23.6,29.71,SSE,148,0.0,0.0,72,0.00,,---,0.00,VWS V14.00,2013-02-09 11:01:00,
2013-02-09 04:06:00,32.5,23.8,29.71,SE,144,0.0,0.0,70,0.00,,---,0.00,VWS V14.00,2013-02-09 11:06:00,
2013-02-09 04:11:00,32.8,24.1,29.71,SE,144,0.0,0.0,70,0.00,,---,0.00,VWS V14.00,2013-02-09 11:11:00,
2013-02-09 04:16:00,33.2,24.8,29.71,SE,145,0.0,0.0,71,0.00,,---,0.00,VWS V14.00,2013-02-09 11:16:00,
2013-02-09 04:21:00,33.9,25.5,29.71,SSE,148,0.0,0.0,71,0.00,,---,0.00,VWS V14.00,2013-02-09 11:21:00,
2013-02-09 04:26:00,34.6,25.8,29.72,SSE,150,0.0,0.0,70,0.00,,---,0.00,VWS V14.00,2013-02-09 11:26:00,
2013-02-09 04:30:00,35.1,26.0,29.71,South,182,0.0,7.0,69,0.00,,---,0.00,VWS V14.00,2013-02-09 11:30:00,
2013-02-09 04:31:00,35.1,26.0,29.71,South,181,0.0,0.0,69,0.00,,---,0.00,VWS V14.00,2013-02-09 11:31:00,
2013-02-09 04:36:00,35.1,26.0,29.71,South,179,0.0,2.0,69,0.00,,---,0.00,VWS V14.00,2013-02-09 11:36:00,
2013-02-09 04:42:00,35.0,25.5,29.71,South,179,0.0,2.0,68,0.00,,---,0.00,VWS V14.00,2013-02-09 11:42:00,
2013-02-09 04:47:00,34.8,25.7,29.71,South,179,0.0,2.0,69,0.00,,---,0.00,VWS V14.00,2013-02-09 11:47:00,
2013-02-09 04:52:00,34.7,25.9,29.71,SSE,159,0.0,2.0,70,0.00,,---,0.00,VWS V14.00,2013-02-09 11:52:00,
2013-02-09 04:57:00,34.8,26.0,29.72,SSE,162,0.0,2.0,70,0.00,,---,0.00,VWS V14.00,2013-02-09 11:57:00,
2013-02-09 05:00:00,35.0,26.6,29.71,South,180,0.0,2.0,71,0.00,,---,0.00,VWS V14.00,2013-02-09 12:00:00,
2013-02-09 05:02:00,35.0,26.6,29.71,South,180,0.0,0.0,71,0.00,,---,0.00,VWS V14.00,2013-02-09 12:02:00,
2013-02-09 05:07:00,35.2,27.1,29.71,SW,236,1.0,1.0,72,0.00,,---,0.00,VWS V14.00,2013-02-09 12:07:00,
2013-02-09 05:12:00,35.8,27.3,29.71,WSW,253,9.0,9.0,71,0.00,,---,0.00,VWS V14.00,2013-02-09 12:12:00,
2013-02-09 05:17:00,36.6,28.1,29.71,WSW,239,4.0,15.0,71,0.00,,---,0.00,VWS V14.00,2013-02-09 12:17:00,
2013-02-09 05:22:00,37.4,28.9,29.71,West,273,1.0,18.0,71,0.00,,---,0.00,VWS V14.00,2013-02-09 12:22:00,
2013-02-09 05:27:00,37.9,29.0,29.71,West,278,1.0,18.0,70,0.00,,---,0.00,VWS V14.00,2013-02-09 12:27:00,
2013-02-09 05:30:00,38.1,29.2,29.71,WSW,250,5.0,18.0,70,0.00,,---,0.00,VWS V14.00,2013-02-09 12:30:00,
2013-02-09 05:32:00,38.1,29.2,29.71,SW,221,9.0,15.0,70,0.00,,---,0.00,VWS V14.00,2013-02-09 12:32:00,
2013-02-09 05:37:00,38.4,29.1,29.72,WNW,294,7.0,24.0,69,0.00,,---,0.00,VWS V14.00,2013-02-09 12:37:00,
2013-02-09 05:42:00,38.6,29.3,29.72,SE,134,0.0,24.0,69,0.00,,---,0.00,VWS V14.00,2013-02-09 12:42:00,
2013-02-09 05:47:00,38.7,29.1,29.72,SW,236,10.0,24.0,68,0.00,,---,0.00,VWS V14.00,2013-02-09 12:47:00,
2013-02-09 05:52:00,38.7,29.4,29.72,WSW,240,22.0,24.0,69,0.00,,---,0.00,VWS V14.00,2013-02-09 12:52:00,
2013-02-09 05:57:00,38.8,29.5,29.72,WSW,256,14.0,24.0,69,0.00,,---,0.00,VWS V14.00,2013-02-09 12:57:00,
2013-02-09 06:00:00,38.7,29.8,29.72,WSW,256,7.0,24.0,70,0.00,,---,0.00,VWS V14.00,2013-02-09 13:00:00,
2013-02-09 06:02:00,38.7,29.8,29.72,SW,232,17.0,25.0,70,0.00,,---,0.00,VWS V14.00,2013-02-09 13:02:00,
2013-02-09 06:07:00,38.4,29.8,29.73,WSW,242,12.0,25.0,71,0.00,,---,0.00,VWS V14.00,2013-02-09 13:07:00,
2013-02-09 06:12:00,37.8,30.3,29.73,WSW,254,10.0,25.0,74,0.00,,---,0.00,VWS V14.00,2013-02-09 13:12:00,
2013-02-09 06:17:00,37.3,30.4,29.73,SW,227,10.0,25.0,76,0.00,,---,0.00,VWS V14.00,2013-02-09 13:17:00,
2013-02-09 06:22:00,37.0,30.5,29.73,SW,223,6.0,25.0,77,0.00,,---,0.00,VWS V14.00,2013-02-09 13:22:00,
2013-02-09 06:27:00,37.0,29.8,29.73,SW,218,4.0,25.0,75,0.00,,---,0.00,VWS V14.00,2013-02-09 13:27:00,
2013-02-09 06:30:00,37.0,29.2,29.73,WSW,239,7.0,25.0,73,0.00,,---,0.00,VWS V14.00,2013-02-09 13:30:00,
2013-02-09 06:32:00,37.0,29.2,29.73,SW,223,4.0,11.0,73,0.00,,---,0.00,VWS V14.00,2013-02-09 13:32:00,
2013-02-09 06:37:00,37.0,28.8,29.73,SW,230,10.0,13.0,72,0.00,,---,0.00,VWS V14.00,2013-02-09 13:37:00,
2013-02-09 06:42:00,37.0,28.8,29.73,West,271,11.0,14.0,72,0.00,,---,0.00,VWS V14.00,2013-02-09 13:42:00,
2013-02-09 06:47:00,36.8,28.6,29.74,East,86,0.0,15.0,72,0.00,,---,0.00,VWS V14.00,2013-02-09 13:47:00,
2013-02-09 06:52:00,36.7,28.5,29.74,ESE,113,0.0,15.0,72,0.00,,---,0.00,VWS V14.00,2013-02-09 13:52:00,
2013-02-09 06:57:00,36.5,29.7,29.74,SSE,148,5.0,15.0,76,0.00,,---,0.00,VWS V14.00,2013-02-09 13:57:00,
2013-02-09 07:00:00,36.3,27.1,29.74,SSE,148,16.0,16.0,69,0.00,,---,0.00,VWS V14.00,2013-02-09 14:00:00,
2013-02-09 07:02:00,36.3,27.1,29.74,ESE,108,0.0,16.0,69,0.00,,---,0.00,VWS V14.00,2013-02-09 14:02:00,
2013-02-09 07:07:00,36.2,26.3,29.73,SE,134,10.0,16.0,67,0.00,,---,0.00,VWS V14.00,2013-02-09 14:07:00,
2013-02-09 07:12:00,36.1,26.6,29.74,South,172,4.0,16.0,68,0.00,,---,0.00,VWS V14.00,2013-02-09 14:12:00,
2013-02-09 07:17:00,35.8,26.6,29.74,ESE,114,1.0,16.0,69,0.00,,---,0.00,VWS V14.00,2013-02-09 14:17:00,
2013-02-09 07:22:00,35.6,26.8,29.74,SSE,153,2.0,30.0,70,0.00,,---,0.00,VWS V14.00,2013-02-09 14:22:00,
2013-02-09 07:27:00,35.6,26.8,29.74,SSW,199,5.0,30.0,70,0.00,,---,0.00,VWS V14.00,2013-02-09 14:27:00,
2013-02-09 07:30:00,35.8,27.0,29.75,NW,323,4.0,30.0,70,0.00,,---,0.00,VWS V14.00,2013-02-09 14:30:00,
2013-02-09 07:32:00,35.8,27.0,29.75,NNW,327,0.0,6.0,70,0.00,,---,0.00,VWS V14.00,2013-02-09 14:32:00,
2013-02-09 07:37:00,35.9,27.4,29.75,West,263,12.0,12.0,71,0.00,,---,0.00,VWS V14.00,2013-02-09 14:37:00,
2013-02-09 07:42:00,36.0,27.5,29.76,SSE,151,0.0,18.0,71,0.00,,---,0.00,VWS V14.00,2013-02-09 14:42:00,
2013-02-09 07:47:00,36.2,27.4,29.76,SSE,148,4.0,19.0,70,0.00,,---,0.00,VWS V14.00,2013-02-09 14:47:00,
2013-02-09 07:52:00,35.3,27.5,29.77,West,263,11.0,22.0,73,0.00,,---,0.00,VWS V14.00,2013-02-09 14:52:00,
2013-02-09 07:57:00,32.9,26.8,29.77,WSW,257,12.0,22.0,78,0.00,,---,0.00,VWS V14.00,2013-02-09 14:57:00,
2013-02-09 08:00:00,31.7,26.8,29.78,West,259,9.0,22.0,82,0.00,,---,0.00,VWS V14.00,2013-02-09 15:00:00,
2013-02-09 08:02:00,31.5,26.9,29.78,West,265,11.0,13.0,83,0.00,,---,0.00,VWS V14.00,2013-02-09 15:02:00,
2013-02-09 08:07:00,30.9,26.9,29.79,West,267,16.0,18.0,85,0.00,,---,0.00,VWS V14.00,2013-02-09 15:07:00,
2013-02-09 08:12:00,30.3,26.9,29.79,West,264,13.0,20.0,87,0.00,,---,0.00,VWS V14.00,2013-02-09 15:12:00,
2013-02-09 08:17:00,30.1,27.0,29.79,West,269,7.0,20.0,88,0.00,,---,0.00,VWS V14.00,2013-02-09 15:17:00,
2013-02-09 08:22:00,30.0,27.2,29.80,West,268,10.0,20.0,89,0.00,,---,0.00,VWS V14.00,2013-02-09 15:22:00,
2013-02-09 08:27:00,29.9,27.1,29.80,West,275,13.0,20.0,89,0.00,,---,0.00,VWS V14.00,2013-02-09 15:27:00,
2013-02-09 08:30:00,29.9,27.3,29.81,SW,231,11.0,20.0,90,0.00,,---,0.00,VWS V14.00,2013-02-09 15:30:00,
2013-02-09 08:32:00,29.9,27.3,29.81,SW,225,5.0,14.0,90,0.00,,---,0.00,VWS V14.00,2013-02-09 15:32:00,
2013-02-09 08:37:00,29.9,27.3,29.82,WSW,247,14.0,15.0,90,0.00,,---,0.00,VWS V14.00,2013-02-09 15:37:00,
2013-02-09 08:42:00,29.7,27.1,29.82,West,262,13.0,20.0,90,0.00,,---,0.00,VWS V14.00,2013-02-09 15:42:00,
2013-02-09 08:47:00,29.6,27.0,29.83,West,265,17.0,20.0,90,0.00,,---,0.00,VWS V14.00,2013-02-09 15:47:00,
2013-02-09 08:52:00,29.5,27.2,29.83,West,273,10.0,20.0,91,0.00,,---,0.00,VWS V14.00,2013-02-09 15:52:00,
2013-02-09 08:57:00,29.5,27.2,29.83,West,259,18.0,20.0,91,0.00,,---,0.00,VWS V14.00,2013-02-09 15:57:00,
2013-02-09 09:00:00,29.4,27.1,29.83,West,263,14.0,20.0,91,0.00,,---,0.00,VWS V14.00,2013-02-09 16:00:00,
2013-02-09 09:02:00,29.4,27.1,29.83,WNW,291,17.0,20.0,91,0.00,,---,0.00,VWS V14.00,2013-02-09 16:02:00,
2013-02-09 09:07:00,29.4,27.1,29.84,West,265,16.0,21.0,91,0.00,,---,0.00,VWS V14.00,2013-02-09 16:07:00,
2013-02-09 09:12:00,29.4,27.4,29.85,West,263,11.0,21.0,92,0.00,,---,0.00,VWS V14.00,2013-02-09 16:12:00,
2013-02-09 09:17:00,29.3,27.0,29.85,WSW,257,10.0,21.0,91,0.00,,---,0.00,VWS V14.00,2013-02-09 16:17:00,
2013-02-09 09:22:00,29.3,27.3,29.86,West,269,12.0,21.0,92,0.00,,---,0.00,VWS V14.00,2013-02-09 16:22:00,
2013-02-09 09:27:00,29.4,27.4,29.85,WNW,284,11.0,21.0,92,0.00,,---,0.00,VWS V14.00,2013-02-09 16:27:00,
2013-02-09 09:30:00,29.4,27.4,29.86,WNW,286,12.0,21.0,92,0.00,,---,0.00,VWS V14.00,2013-02-09 16:30:00,
2013-02-09 09:32:00,29.4,27.4,29.86,West,273,9.0,16.0,92,0.00,,---,0.00,VWS V14.00,2013-02-09 16:32:00,
2013-02-09 09:37:00,29.6,27.6,29.86,WNW,292,12.0,16.0,92,0.00,,---,0.00,VWS V14.00,2013-02-09 16:37:00,
2013-02-09 09:42:00,29.6,27.6,29.86,West,274,9.0,16.0,92,0.00,,---,0.00,VWS V14.00,2013-02-09 16:42:00,
2013-02-09 09:47:00,29.8,27.8,29.86,West,261,11.0,16.0,92,0.00,,---,0.00,VWS V14.00,2013-02-09 16:47:00,
2013-02-09 09:52:00,30.1,28.1,29.87,West,273,8.0,16.0,92,0.00,,---,0.00,VWS V14.00,2013-02-09 16:52:00,
2013-02-09 09:57:00,30.1,28.1,29.87,West,268,7.0,16.0,92,0.00,,---,0.00,VWS V14.00,2013-02-09 16:57:00,
2013-02-09 10:00:00,30.1,28.1,29.87,West,266,7.0,16.0,92,0.00,,---,0.00,VWS V14.00,2013-02-09 17:00:00,
2013-02-09 10:02:00,30.2,28.2,29.87,West,272,6.0,10.0,92,0.00,,---,0.00,VWS V14.00,2013-02-09 17:02:00,
2013-02-09 10:07:00,30.3,28.3,29.88,WNW,290,11.0,14.0,92,0.00,,---,0.00,VWS V14.00,2013-02-09 17:07:00,
2013-02-09 10:12:00,30.4,28.4,29.88,West,271,6.0,14.0,92,0.00,,---,0.00,VWS V14.00,2013-02-09 17:12:00,
2013-02-09 10:17:00,30.6,28.6,29.88,WNW,294,7.0,14.0,92,0.00,,---,0.00,VWS V14.00,2013-02-09 17:17:00,
2013-02-09 10:22:00,30.7,28.7,29.88,West,277,7.0,14.0,92,0.00,,---,0.00,VWS V14.00,2013-02-09 17:22:00,
2013-02-09 10:27:00,30.7,28.7,29.88,West,281,5.0,14.0,92,0.00,,---,0.00,VWS V14.00,2013-02-09 17:27:00,
2013-02-09 10:30:00,30.9,28.6,29.88,West,267,13.0,14.0,91,0.00,,---,0.00,VWS V14.00,2013-02-09 17:30:00,
2013-02-09 10:33:00,31.0,28.7,29.89,West,268,7.0,13.0,91,0.00,,---,0.00,VWS V14.00,2013-02-09 17:33:00,
2013-02-09 10:38:00,31.3,28.7,29.89,West,263,5.0,13.0,90,0.00,,---,0.00,VWS V14.00,2013-02-09 17:38:00,
2013-02-09 10:43:00,31.4,28.5,29.89,WSW,252,5.0,13.0,89,0.00,,---,0.00,VWS V14.00,2013-02-09 17:43:00,
2013-02-09 10:48:00,31.5,28.6,29.89,WSW,245,0.0,13.0,89,0.00,,---,0.00,VWS V14.00,2013-02-09 17:48:00,
2013-02-09 10:53:00,31.8,29.2,29.89,WSW,248,3.0,13.0,90,0.00,,---,0.00,VWS V14.00,2013-02-09 17:53:00,
2013-02-09 10:58:00,32.2,29.3,29.89,WSW,246,5.0,13.0,89,0.00,,---,0.00,VWS V14.00,2013-02-09 17:58:00,
2013-02-09 11:00:00,32.6,29.7,29.89,West,267,5.0,13.0,89,0.00,,---,0.00,VWS V14.00,2013-02-09 18:00:00,
2013-02-09 11:03:00,32.7,29.5,29.89,WSW,252,10.0,16.0,88,0.00,,---,0.00,VWS V14.00,2013-02-09 18:03:00,
2013-02-09 11:08:00,33.1,29.4,29.89,West,267,5.0,16.0,86,0.00,,---,0.00,VWS V14.00,2013-02-09 18:08:00,
2013-02-09 11:13:00,33.4,29.4,29.90,WSW,255,9.0,16.0,85,0.00,,---,0.00,VWS V14.00,2013-02-09 18:13:00,
2013-02-09 11:18:00,33.5,29.2,29.90,WSW,254,7.0,16.0,84,0.00,,---,0.00,VWS V14.00,2013-02-09 18:18:00,
2013-02-09 11:23:00,33.5,28.9,29.90,WSW,252,4.0,16.0,83,0.00,,---,0.00,VWS V14.00,2013-02-09 18:23:00,
2013-02-09 11:28:00,33.7,29.7,29.90,WSW,257,7.0,16.0,85,0.00,,---,0.00,VWS V14.00,2013-02-09 18:28:00,
2013-02-09 11:30:00,33.9,29.0,29.90,West,265,9.0,16.0,82,0.00,,---,0.00,VWS V14.00,2013-02-09 18:30:00,
2013-02-09 11:33:00,33.9,29.0,29.90,West,273,11.0,13.0,82,0.00,,---,0.00,VWS V14.00,2013-02-09 18:33:00,
2013-02-09 11:38:00,34.2,29.0,29.90,West,276,12.0,15.0,81,0.00,,---,0.00,VWS V14.00,2013-02-09 18:38:00,
2013-02-09 11:43:00,34.9,29.1,29.90,West,277,7.0,15.0,79,0.00,,---,0.00,VWS V14.00,2013-02-09 18:43:00,
2013-02-09 11:48:00,34.8,28.6,29.91,West,273,6.0,15.0,78,0.00,,---,0.00,VWS V14.00,2013-02-09 18:48:00,
2013-02-09 11:53:00,34.9,28.4,29.91,WSW,237,5.0,15.0,77,0.00,,---,0.00,VWS V14.00,2013-02-09 18:53:00,
2013-02-09 11:58:00,35.1,28.0,29.90,West,271,5.0,15.0,75,0.00,,---,0.00,VWS V14.00,2013-02-09 18:58:00,
2013-02-09 12:00:00,35.3,28.8,29.91,West,275,9.0,15.0,77,0.00,,---,0.00,VWS V14.00,2013-02-09 19:00:00,
2013-02-09 12:03:00,35.6,28.1,29.91,WSW,251,14.0,16.0,74,0.00,,---,0.01,VWS V14.00,2013-02-09 19:03:00,
2013-02-09 12:08:00,35.6,27.1,29.90,West,260,12.0,16.0,71,0.00,,---,0.01,VWS V14.00,2013-02-09 19:08:00,
2013-02-09 12:13:00,35.7,26.9,29.91,West,273,14.0,19.0,70,0.00,,---,0.01,VWS V14.00,2013-02-09 19:13:00,
2013-02-09 12:18:00,36.1,26.9,29.91,West,267,10.0,19.0,69,0.00,,---,0.01,VWS V14.00,2013-02-09 19:18:00,
2013-02-09 12:23:00,36.4,26.1,29.91,WSW,247,13.0,19.0,66,0.00,,---,0.01,VWS V14.00,2013-02-09 19:23:00,
2013-02-09 12:28:00,37.7,27.0,29.91,WSW,251,8.0,19.0,65,0.00,,---,0.01,VWS V14.00,2013-02-09 19:28:00,
2013-02-09 12:30:00,38.1,26.2,29.91,WSW,250,17.0,21.0,62,0.00,,---,0.01,VWS V14.00,2013-02-09 19:30:00,
2013-02-09 12:33:00,38.4,26.5,29.91,West,268,17.0,20.0,62,0.00,,---,0.01,VWS V14.00,2013-02-09 19:33:00,
2013-02-09 12:38:00,38.6,25.1,29.91,WSW,249,11.0,22.0,58,0.00,,---,0.01,VWS V14.00,2013-02-09 19:38:00,
2013-02-09 13:00:00,39.0,23.8,29.90,WSW,248,11.0,22.0,54,0.00,,---,0.00,VWS V14.00,2013-02-09 20:00:00,
2013-02-09 13:15:00,39.0,23.8,29.90,WSW,248,11.0,22.0,54,0.00,,---,0.00,VWS V14.00,2013-02-09 20:15:00,
2013-02-09 13:20:00,39.4,24.1,29.90,West,267,11.0,14.0,54,0.00,,---,0.01,VWS V14.00,2013-02-09 20:20:00,
2013-02-09 13:25:00,39.3,24.5,29.90,West,259,6.0,14.0,55,0.00,,---,0.01,VWS V14.00,2013-02-09 20:25:00,
2013-02-09 13:30:00,39.9,25.1,29.90,SW,221,9.0,14.0,55,0.00,,---,0.01,VWS V14.00,2013-02-09 20:30:00,
2013-02-09 13:35:00,40.7,24.5,29.90,SW,221,6.0,15.0,52,0.00,,---,0.01,VWS V14.00,2013-02-09 20:35:00,
2013-02-09 13:40:00,41.1,23.9,29.90,West,274,14.0,18.0,50,0.00,,---,0.01,VWS V14.00,2013-02-09 20:40:00,
2013-02-09 13:45:00,40.5,22.9,29.91,West,261,10.0,18.0,49,0.00,,---,0.01,VWS V14.00,2013-02-09 20:45:00,
2013-02-09 13:50:00,40.0,22.9,29.91,West,267,4.0,18.0,50,0.00,,---,0.01,VWS V14.00,2013-02-09 20:50:00,
2013-02-09 13:55:00,39.7,23.1,29.91,West,273,6.0,18.0,51,0.00,,---,0.01,VWS V14.00,2013-02-09 20:55:00,
2013-02-09 14:00:00,39.9,23.3,29.91,West,265,7.0,18.0,51,0.00,,---,0.01,VWS V14.00,2013-02-09 21:00:00,
2013-02-09 14:05:00,39.8,23.2,29.91,West,263,9.0,15.0,51,0.00,,---,0.01,VWS V14.00,2013-02-09 21:05:00,
2013-02-09 14:10:00,39.8,22.7,29.91,WSW,251,9.0,15.0,50,0.00,,---,0.01,VWS V14.00,2013-02-09 21:10:00,
2013-02-09 14:15:00,39.9,23.3,29.91,WNW,287,11.0,17.0,51,0.00,,---,0.01,VWS V14.00,2013-02-09 21:15:00,
2013-02-09 14:20:00,39.8,22.7,29.92,WSW,240,5.0,18.0,50,0.00,,---,0.01,VWS V14.00,2013-02-09 21:20:00,
2013-02-09 14:25:00,39.7,21.6,29.92,SW,215,6.0,18.0,48,0.00,,---,0.01,VWS V14.00,2013-02-09 21:25:00,
2013-02-09 14:30:00,40.1,23.0,29.91,WSW,253,10.0,19.0,50,0.00,,---,0.01,VWS V14.00,2013-02-09 21:30:00,
2013-02-09 14:35:00,41.1,21.4,29.92,West,269,12.0,22.0,45,0.00,,---,0.01,VWS V14.00,2013-02-09 21:35:00,
2013-02-09 14:40:00,40.5,20.3,29.91,SW,215,7.0,22.0,44,0.00,,---,0.02,VWS V14.00,2013-02-09 21:40:00,
2013-02-09 14:45:00,40.6,20.4,29.92,WSW,246,14.0,22.0,44,0.00,,---,0.02,VWS V14.00,2013-02-09 21:45:00,
2013-02-09 14:50:00,41.5,21.2,29.91,WSW,244,11.0,22.0,44,0.00,,---,0.02,VWS V14.00,2013-02-09 21:50:00,
2013-02-09 14:56:00,41.8,21.5,29.91,West,263,16.0,22.0,44,0.00,,---,0.02,VWS V14.00,2013-02-09 21:56:00,
2013-02-09 15:01:00,42.1,21.2,29.91,WSW,252,9.0,22.0,43,0.00,,---,0.02,VWS V14.00,2013-02-09 22:01:00,
2013-02-09 15:06:00,43.0,21.5,29.92,WSW,240,12.0,16.0,42,0.00,,---,0.02,VWS V14.00,2013-02-09 22:06:00,
2013-02-09 15:10:00,43.4,21.3,29.92,West,279,12.0,22.0,41,0.00,,---,0.02,VWS V14.00,2013-02-09 22:10:00,
2013-02-09 15:15:00,43.0,23.1,29.92,West,263,10.0,22.0,45,0.00,,---,0.02,VWS V14.00,2013-02-09 22:15:00,
2013-02-09 15:21:00,42.5,21.0,29.93,West,265,9.0,22.0,42,0.00,,---,0.02,VWS V14.00,2013-02-09 22:21:00,
2013-02-09 15:26:00,42.1,21.8,29.93,West,279,7.0,22.0,44,0.00,,---,0.02,VWS V14.00,2013-02-09 22:26:00,
2013-02-09 15:31:00,41.7,23.0,29.93,West,275,5.0,22.0,47,0.00,,---,0.02,VWS V14.00,2013-02-09 22:31:00,
2013-02-09 15:36:00,41.3,24.1,29.93,West,279,5.0,17.0,50,0.00,,---,0.02,VWS V14.00,2013-02-09 22:36:00,
2013-02-09 15:41:00,40.5,24.7,29.93,West,271,10.0,17.0,53,0.00,,---,0.02,VWS V14.00,2013-02-09 22:41:00,
2013-02-09 15:46:00,39.9,24.6,29.93,West,259,16.0,17.0,54,0.00,,---,0.02,VWS V14.00,2013-02-09 22:46:00,
2013-02-09 15:51:00,40.4,24.2,29.94,WNW,293,10.0,17.0,52,0.00,,---,0.02,VWS V14.00,2013-02-09 22:51:00,
2013-02-09 15:56:00,40.3,22.7,29.94,WNW,285,11.0,17.0,49,0.00,,---,0.02,VWS V14.00,2013-02-09 22:56:00,
2013-02-09 16:01:00,39.7,24.0,29.93,WNW,287,7.0,17.0,53,0.00,,---,0.02,VWS V14.00,2013-02-09 23:01:00,
2013-02-09 16:06:00,39.8,24.1,29.93,West,261,5.0,11.0,53,0.00,,---,0.02,VWS V14.00,2013-02-09 23:06:00,
2013-02-09 16:11:00,40.6,24.4,29.94,WNW,286,10.0,11.0,52,0.00,,---,0.02,VWS V14.00,2013-02-09 23:11:00,
2013-02-09 16:16:00,40.8,23.6,29.94,West,269,10.0,15.0,50,0.00,,---,0.02,VWS V14.00,2013-02-09 23:16:00,
2013-02-09 16:21:00,40.3,23.1,29.94,WSW,257,6.0,15.0,50,0.00,,---,0.02,VWS V14.00,2013-02-09 23:21:00,
2013-02-09 16:26:00,40.0,22.9,29.94,West,275,5.0,15.0,50,0.00,,---,0.02,VWS V14.00,2013-02-09 23:26:00,
2013-02-09 16:31:00,40.0,23.8,29.95,WNW,286,5.0,15.0,52,0.00,,---,0.02,VWS V14.00,2013-02-09 23:31:00,
2013-02-09 16:36:00,40.8,23.6,29.95,WNW,300,9.0,10.0,50,0.00,,---,0.02,VWS V14.00,2013-02-09 23:36:00,
2013-02-09 16:41:00,41.4,23.7,29.95,West,279,10.0,14.0,49,0.00,,---,0.02,VWS V14.00,2013-02-09 23:41:00,
2013-02-09 16:46:00,41.5,23.8,29.95,SW,221,9.0,14.0,49,0.00,,---,0.02,VWS V14.00,2013-02-09 23:46:00,
2013-02-09 16:51:00,41.3,23.6,29.95,West,271,10.0,14.0,49,0.00,,---,0.02,VWS V14.00,2013-02-09 23:51:00,
2013-02-09 16:56:00,41.4,24.2,29.95,West,265,9.0,14.0,50,0.00,,---,0.02,VWS V14.00,2013-02-09 23:56:00,
2013-02-09 17:01:00,40.9,23.2,29.95,WNW,292,8.0,14.0,49,0.00,,---,0.02,VWS V14.00,2013-02-10 00:01:00,
2013-02-09 17:06:00,40.8,23.6,29.96,WNW,283,4.0,11.0,50,0.00,,---,0.02,VWS V14.00,2013-02-10 00:06:00,
2013-02-09 17:11:00,40.9,24.2,29.96,West,263,2.0,11.0,51,0.00,,---,0.02,VWS V14.00,2013-02-10 00:11:00,
2013-02-09 17:16:00,41.2,23.5,29.96,West,278,6.0,11.0,49,0.00,,---,0.02,VWS V14.00,2013-02-10 00:16:00,
2013-02-09 17:21:00,40.9,22.7,29.96,West,265,11.0,13.0,48,0.00,,---,0.02,VWS V14.00,2013-02-10 00:21:00,
2013-02-09 17:26:00,40.5,22.9,29.96,WNW,290,6.0,17.0,49,0.00,,---,0.02,VWS V14.00,2013-02-10 00:26:00,
2013-02-09 17:31:00,40.2,23.1,29.96,West,269,7.0,17.0,50,0.00,,---,0.02,VWS V14.00,2013-02-10 00:31:00,
2013-02-09 17:36:00,39.9,22.8,29.96,West,275,6.0,11.0,50,0.00,,---,0.02,VWS V14.00,2013-02-10 00:36:00,
2013-02-09 17:41:00,39.5,22.4,29.96,West,265,5.0,11.0,50,0.00,,---,0.02,VWS V14.00,2013-02-10 00:41:00,
2013-02-09 17:46:00,38.9,22.3,29.96,West,265,7.0,11.0,51,0.00,,---,0.02,VWS V14.00,2013-02-10 00:46:00,
2013-02-09 17:51:00,38.3,21.8,29.96,West,265,6.0,11.0,51,0.00,,---,0.02,VWS V14.00,2013-02-10 00:51:00,
2013-02-09 17:56:00,37.9,21.9,29.96,West,275,4.0,11.0,52,0.00,,---,0.02,VWS V14.00,2013-02-10 00:56:00,
2013-02-09 18:01:00,37.5,21.5,29.97,West,275,4.0,13.0,52,0.00,,---,0.02,VWS V14.00,2013-02-10 01:01:00,
2013-02-09 18:06:00,37.1,21.6,29.97,West,269,5.0,7.0,53,0.00,,---,0.02,VWS V14.00,2013-02-10 01:06:00,
2013-02-09 18:11:00,36.8,21.3,29.97,WNW,284,6.0,10.0,53,0.00,,---,0.02,VWS V14.00,2013-02-10 01:11:00,
2013-02-09 18:16:00,36.7,21.6,29.97,West,267,6.0,12.0,54,0.00,,---,0.02,VWS V14.00,2013-02-10 01:16:00,
2013-02-09 18:21:00,36.6,21.5,29.97,West,279,7.0,12.0,54,0.00,,---,0.02,VWS V14.00,2013-02-10 01:21:00,
2013-02-09 18:26:00,36.3,21.3,29.97,West,277,6.0,12.0,54,0.00,,---,0.02,VWS V14.00,2013-02-10 01:26:00,
2013-02-09 18:31:00,36.0,21.4,29.97,West,273,6.0,6.0,55,0.00,,---,0.02,VWS V14.00,2013-02-10 01:31:00,
2013-02-09 18:36:00,35.6,21.5,29.98,West,277,4.0,9.0,56,0.00,,---,0.02,VWS V14.00,2013-02-10 01:36:00,
2013-02-09 18:41:00,35.2,21.5,29.98,West,276,3.0,9.0,57,0.00,,---,0.02,VWS V14.00,2013-02-10 01:41:00,
2013-02-09 18:46:00,34.9,21.2,29.98,West,276,2.0,9.0,57,0.00,,---,0.02,VWS V14.00,2013-02-10 01:46:00,
2013-02-09 18:51:00,34.6,21.4,29.98,West,276,1.0,9.0,58,0.00,,---,0.02,VWS V14.00,2013-02-10 01:51:00,
2013-02-09 18:56:00,34.3,21.1,29.98,West,276,0.0,9.0,58,0.00,,---,0.02,VWS V14.00,2013-02-10 01:56:00,
2013-02-09 19:01:00,34.0,20.8,29.99,West,276,0.0,0.0,58,0.00,,---,0.02,VWS V14.00,2013-02-10 02:01:00,
2013-02-09 19:06:00,33.7,20.9,29.99,West,276,0.0,0.0,59,0.00,,---,0.02,VWS V14.00,2013-02-10 02:06:00,
2013-02-09 19:11:00,33.1,20.4,30.00,West,276,0.0,0.0,59,0.00,,---,0.02,VWS V14.00,2013-02-10 02:11:00,
2013-02-09 19:16:00,32.3,20.4,30.00,West,276,0.0,0.0,61,0.00,,---,0.02,VWS V14.00,2013-02-10 02:16:00,
2013-02-09 19:21:00,31.4,20.3,30.00,West,276,0.0,0.0,63,0.00,,---,0.02,VWS V14.00,2013-02-10 02:21:00,
2013-02-09 19:27:00,30.7,20.3,30.01,West,276,0.0,0.0,65,0.00,,---,0.02,VWS V14.00,2013-02-10 02:27:00,
2013-02-09 19:32:00,30.4,20.4,30.02,West,276,0.0,0.0,66,0.00,,---,0.02,VWS V14.00,2013-02-10 02:32:00,
2013-02-09 19:37:00,30.6,21.0,30.02,West,275,0.0,0.0,67,0.00,,---,0.02,VWS V14.00,2013-02-10 02:37:00,
2013-02-09 19:42:00,31.1,21.1,30.02,West,275,0.0,0.0,66,0.00,,---,0.02,VWS V14.00,2013-02-10 02:42:00,
2013-02-09 19:47:00,31.7,21.3,30.02,West,275,0.0,0.0,65,0.00,,---,0.02,VWS V14.00,2013-02-10 02:47:00,
2013-02-09 19:52:00,32.0,21.2,30.02,West,275,0.0,0.0,64,0.00,,---,0.02,VWS V14.00,2013-02-10 02:52:00,
2013-02-09 19:57:00,32.4,21.2,30.02,West,275,0.0,0.0,63,0.00,,---,0.02,VWS V14.00,2013-02-10 02:57:00,
2013-02-09 20:02:00,32.7,21.1,30.02,West,275,0.0,0.0,62,0.00,,---,0.02,VWS V14.00,2013-02-10 03:02:00,
2013-02-09 20:07:00,31.8,20.7,30.02,West,275,0.0,0.0,63,0.00,,---,0.02,VWS V14.00,2013-02-10 03:07:00,
2013-02-09 20:12:00,30.8,20.4,30.02,West,275,0.0,0.0,65,0.00,,---,0.02,VWS V14.00,2013-02-10 03:12:00,
2013-02-09 20:17:00,30.5,20.9,30.03,West,267,0.0,0.0,67,0.00,,---,0.02,VWS V14.00,2013-02-10 03:17:00,
2013-02-09 20:22:00,32.4,21.6,30.03,SW,235,4.0,5.0,64,0.00,,---,0.02,VWS V14.00,2013-02-10 03:22:00,
2013-02-09 20:27:00,33.9,21.5,30.03,SW,230,0.0,6.0,60,0.00,,---,0.02,VWS V14.00,2013-02-10 03:27:00,
2013-02-09 20:32:00,34.2,21.4,30.03,SW,230,0.0,0.0,59,0.00,,---,0.02,VWS V14.00,2013-02-10 03:32:00,
2013-02-09 20:37:00,33.6,21.2,30.03,SW,230,0.0,0.0,60,0.00,,---,0.02,VWS V14.00,2013-02-10 03:37:00,
2013-02-09 20:42:00,32.9,20.9,30.03,SW,230,0.0,0.0,61,0.00,,---,0.02,VWS V14.00,2013-02-10 03:42:00,
2013-02-09 20:47:00,31.9,20.4,30.03,SW,230,0.0,0.0,62,0.00,,---,0.02,VWS V14.00,2013-02-10 03:47:00,
2013-02-09 20:52:00,31.2,20.5,30.03,SW,230,0.0,0.0,64,0.00,,---,0.02,VWS V14.00,2013-02-10 03:52:00,
2013-02-09 20:57:00,31.0,21.0,30.03,SW,231,0.0,0.0,66,0.00,,---,0.02,VWS V14.00,2013-02-10 03:57:00,
2013-02-09 21:02:00,31.2,21.2,30.03,SW,231,0.0,0.0,66,0.00,,---,0.02,VWS V14.00,2013-02-10 04:02:00,
2013-02-09 21:07:00,30.8,20.8,30.04,SW,231,0.0,0.0,66,0.00,,---,0.02,VWS V14.00,2013-02-10 04:07:00,
2013-02-09 21:12:00,29.8,20.2,30.04,SW,231,0.0,0.0,67,0.00,,---,0.02,VWS V14.00,2013-02-10 04:12:00,
2013-02-09 21:17:00,28.9,20.0,30.05,SW,231,0.0,0.0,69,0.00,,---,0.02,VWS V14.00,2013-02-10 04:17:00,
2013-02-09 21:22:00,28.3,20.1,30.05,SW,231,0.0,0.0,71,0.00,,---,0.02,VWS V14.00,2013-02-10 04:22:00,
2013-02-09 21:27:00,28.0,20.5,30.05,SW,231,0.0,0.0,73,0.00,,---,0.02,VWS V14.00,2013-02-10 04:27:00,
2013-02-09 21:32:00,28.0,20.2,30.05,SW,231,0.0,0.0,72,0.00,,---,0.02,VWS V14.00,2013-02-10 04:32:00,
2013-02-09 21:37:00,27.8,20.3,30.05,SW,231,0.0,0.0,73,0.00,,---,0.02,VWS V14.00,2013-02-10 04:37:00,
2013-02-09 21:42:00,27.6,20.1,30.05,SW,231,0.0,0.0,73,0.00,,---,0.02,VWS V14.00,2013-02-10 04:42:00,
2013-02-09 21:47:00,27.4,19.9,30.05,SW,231,0.0,0.0,73,0.00,,---,0.02,VWS V14.00,2013-02-10 04:47:00,
2013-02-09 21:52:00,27.1,19.9,30.06,SW,231,0.0,0.0,74,0.00,,---,0.02,VWS V14.00,2013-02-10 04:52:00,
2013-02-09 21:57:00,27.0,19.8,30.06,SW,231,0.0,0.0,74,0.00,,---,0.02,VWS V14.00,2013-02-10 04:57:00,
2013-02-09 22:00:00,27.1,19.9,30.06,SW,231,0.0,0.0,74,0.00,,---,0.02,VWS V14.00,2013-02-10 05:00:00,
2013-02-09 22:01:00,27.0,19.8,30.06,SW,231,0.0,0.0,74,0.00,,---,0.02,VWS V14.00,2013-02-10 05:01:00,
2013-02-09 22:06:00,27.2,20.0,30.07,SW,231,0.0,0.0,74,0.00,,---,0.02,VWS V14.00,2013-02-10 05:06:00,
2013-02-09 22:11:00,27.3,20.1,30.06,SW,231,0.0,0.0,74,0.00,,---,0.02,VWS V14.00,2013-02-10 05:11:00,
2013-02-09 22:15:00,28.1,21.2,30.07,SW,231,0.0,0.0,75,0.00,,---,0.02,VWS V14.00,2013-02-10 05:15:00,
2013-02-09 22:20:00,29.9,22.0,30.07,SW,231,0.0,0.0,72,0.00,,---,0.02,VWS V14.00,2013-02-10 05:20:00,
2013-02-09 22:26:00,31.5,21.8,30.07,SW,232,4.0,6.0,67,0.00,,---,0.02,VWS V14.00,2013-02-10 05:26:00,
2013-02-09 22:30:00,32.7,21.5,30.07,SW,236,4.0,7.0,63,0.00,,---,0.02,VWS V14.00,2013-02-10 05:30:00,
2013-02-09 22:35:00,33.3,21.7,30.08,WSW,241,1.0,7.0,62,0.00,,---,0.02,VWS V14.00,2013-02-10 05:35:00,
2013-02-09 22:40:00,32.2,20.3,30.07,WSW,241,0.0,7.0,61,0.00,,---,0.02,VWS V14.00,2013-02-10 05:40:00,
2013-02-09 22:45:00,30.4,20.1,30.07,WSW,241,0.0,7.0,65,0.00,,---,0.02,VWS V14.00,2013-02-10 05:45:00,
2013-02-09 22:51:00,29.5,20.3,30.07,WSW,241,0.0,7.0,68,0.00,,---,0.02,VWS V14.00,2013-02-10 05:51:00,
2013-02-09 22:56:00,30.4,21.1,30.07,WSW,241,0.0,7.0,68,0.00,,---,0.02,VWS V14.00,2013-02-10 05:56:00,
2013-02-09 23:01:00,31.1,20.7,30.07,WSW,241,0.0,7.0,65,0.00,,---,0.02,VWS V14.00,2013-02-10 06:01:00,
2013-02-09 23:06:00,31.1,20.7,30.08,WSW,241,0.0,0.0,65,0.00,,---,0.02,VWS V14.00,2013-02-10 06:06:00,
2013-02-09 23:11:00,30.9,20.2,30.08,WSW,241,0.0,0.0,64,0.00,,---,0.02,VWS V14.00,2013-02-10 06:11:00,
2013-02-09 23:16:00,29.9,19.6,30.08,WSW,241,0.0,0.0,65,0.00,,---,0.02,VWS V14.00,2013-02-10 06:16:00,
2013-02-09 23:21:00,29.3,19.7,30.08,WSW,241,0.0,0.0,67,0.00,,---,0.02,VWS V14.00,2013-02-10 06:21:00,
2013-02-09 23:26:00,28.8,19.6,30.08,WSW,241,0.0,0.0,68,0.00,,---,0.02,VWS V14.00,2013-02-10 06:26:00,
2013-02-09 23:31:00,28.5,19.6,30.08,WSW,241,0.0,0.0,69,0.00,,---,0.02,VWS V14.00,2013-02-10 06:31:00,
2013-02-09 23:36:00,28.4,19.9,30.08,WSW,241,0.0,0.0,70,0.00,,---,0.02,VWS V14.00,2013-02-10 06:36:00,
2013-02-09 23:41:00,28.5,20.3,30.08,WSW,241,0.0,0.0,71,0.00,,---,0.02,VWS V14.00,2013-02-10 06:41:00,
2013-02-09 23:46:00,28.5,20.0,30.08,WSW,241,0.0,0.0,70,0.00,,---,0.02,VWS V14.00,2013-02-10 06:46:00,
2013-02-09 23:51:00,27.6,19.1,30.08,WSW,241,0.0,0.0,70,0.00,,---,0.02,VWS V14.00,2013-02-10 06:51:00,
2013-02-09 23:56:00,27.0,19.8,30.09,WSW,242,0.0,7.0,74,0.00,,---,0.02,VWS V14.00,2013-02-10 06:56:00,